Retour au catalogue

ATLAS 5 CENTAUR DEB

LostHEO
NORAD 46852·DEBRIS·🇺🇸 United States

Lancé Oct 17, 2018 depuis Cape Canaveral Space Force Station

Loading…

Prochains Passages (prochaines 24 heures)

TLE

PériméSource: Space-Track

Époque: Jul 19, 2026, 17:37 UTC

1 46852U 18079DH  26200.73424598 -.00000120  00000-0  00000-0 0  9996
2 46852  14.3418  21.1850 4741058 341.2725   5.8574  1.80620807 26399

Suivez ATLAS 5 CENTAUR DEB en temps réel avec AllMySat

Download on the App Store